TimeEDT,TemperatureF,Dew PointF,Humidity,Sea Level PressureIn,VisibilityMPH,Wind Direction,Wind SpeedMPH,Gust SpeedMPH,PrecipitationIn,Events,Conditions,WindDirDegrees,DateUTC
12:53 AM,36.0,28.0,73,29.87,10.0,ENE,12.7,-,N/A,,Overcast,60,2014-04-04 04:53:00
1:53 AM,36.0,28.0,73,29.83,10.0,ENE,9.2,-,N/A,,Overcast,60,2014-04-04 05:53:00
2:53 AM,36.0,28.0,73,29.76,10.0,ENE,11.5,-,N/A,,Overcast,70,2014-04-04 06:53:00
3:53 AM,36.0,28.0,73,29.76,10.0,East,9.2,-,N/A,,Overcast,80,2014-04-04 07:53:00
4:53 AM,36.0,28.9,76,29.75,10.0,East,8.1,-,N/A,,Overcast,90,2014-04-04 08:53:00
5:05 AM,36.0,28.9,76,29.73,10.0,East,5.8,-,N/A,,Overcast,90,2014-04-04 09:05:00
5:53 AM,34.0,30.9,89,29.70,9.0,ENE,9.2,-,N/A,,Overcast,70,2014-04-04 09:53:00
6:45 AM,34.0,32.0,92,29.63,2.0,East,10.4,-,N/A,,Overcast,80,2014-04-04 10:45:00
6:53 AM,34.0,32.0,92,29.65,2.0,East,9.2,-,N/A,,Overcast,80,2014-04-04 10:53:00
7:04 AM,34.0,32.0,92,29.62,2.0,East,10.4,-,N/A,,Overcast,80,2014-04-04 11:04:00
7:17 AM,34.0,32.0,92,29.61,1.5,East,10.4,-,N/A,,Overcast,80,2014-04-04 11:17:00
7:53 AM,34.0,32.0,92,29.63,1.5,East,9.2,-,N/A,,Overcast,80,2014-04-04 11:53:00
8:32 AM,35.1,33.1,92,29.59,0.5,ENE,6.9,-,N/A,,Overcast,70,2014-04-04 12:32:00
8:53 AM,35.1,33.1,92,29.60,0.5,ENE,6.9,-,N/A,,Overcast,70,2014-04-04 12:53:00
9:38 AM,35.1,33.1,92,29.53,0.2,ENE,8.1,-,N/A,Fog,Fog,70,2014-04-04 13:38:00
9:53 AM,35.1,34.0,96,29.55,0.1,NE,5.8,-,N/A,Fog,Fog,50,2014-04-04 13:53:00
10:53 AM,37.0,35.1,93,29.51,0.1,East,3.5,-,N/A,Fog,Fog,90,2014-04-04 14:53:00
11:53 AM,37.9,36.0,93,29.47,0.1,East,5.8,-,0.05,Rain,Light Rain,80,2014-04-04 15:53:00
12:06 PM,37.9,36.0,93,29.43,0.5,ENE,6.9,-,0.05,Rain,Rain,70,2014-04-04 16:06:00
12:53 PM,37.9,37.0,97,29.43,0.8,NE,4.6,-,0.16,Rain,Rain,50,2014-04-04 16:53:00
1:26 PM,39.0,37.0,93,29.43,1.5,WNW,5.8,-,0.03,Rain,Rain,290,2014-04-04 17:26:00
1:53 PM,37.9,36.0,93,29.42,1.5,NNW,9.2,-,0.10,Rain,Rain,340,2014-04-04 17:53:00
2:06 PM,37.9,36.0,93,29.43,1.5,NW,4.6,-,0.03,Rain,Rain,310,2014-04-04 18:06:00
2:15 PM,37.9,36.0,93,29.42,2.0,NW,3.5,-,0.05,Rain,Rain,320,2014-04-04 18:15:00
2:40 PM,39.0,37.0,93,29.41,2.0,NNW,4.6,-,0.09,Rain,Light Rain,330,2014-04-04 18:40:00
2:53 PM,37.9,36.0,93,29.40,5.0,NNE,9.2,-,0.10,Rain,Light Rain,20,2014-04-04 18:53:00
3:14 PM,39.0,37.0,93,29.42,9.0,South,4.6,-,0.00,Rain,Light Rain,190,2014-04-04 19:14:00
3:53 PM,41.0,37.9,89,29.44,10.0,South,6.9,-,0.00,,Overcast,190,2014-04-04 19:53:00
4:09 PM,41.0,39.0,93,29.41,8.0,South,5.8,-,N/A,,Overcast,190,2014-04-04 20:09:00
4:53 PM,44.1,41.0,89,29.42,2.0,SW,16.1,-,N/A,,Overcast,220,2014-04-04 20:53:00
5:50 PM,42.8,37.4,81,29.44,10.0,WSW,27.6,36.8,0.00,,Overcast,240,2014-04-04 21:50:00
5:53 PM,42.1,36.0,79,29.46,10.0,WSW,27.6,36.8,0.00,,Overcast,240,2014-04-04 21:53:00
6:04 PM,41.0,36.0,82,29.45,10.0,WSW,25.3,36.8,N/A,,Overcast,240,2014-04-04 22:04:00
6:53 PM,39.0,34.0,82,29.50,10.0,WSW,20.7,33.4,0.00,,Overcast,250,2014-04-04 22:53:00
7:53 PM,37.9,32.0,79,29.53,10.0,WSW,23.0,32.2,N/A,,Overcast,250,2014-04-04 23:53:00
8:53 PM,37.0,32.0,82,29.56,10.0,WSW,19.6,32.2,N/A,,Overcast,250,2014-04-05 00:53:00
9:53 PM,36.0,30.9,82,29.60,10.0,West,20.7,31.1,N/A,,Overcast,260,2014-04-05 01:53:00
10:53 PM,36.0,30.0,79,29.64,10.0,West,17.3,27.6,N/A,,Overcast,260,2014-04-05 02:53:00
11:50 PM,35.6,28.4,75,29.66,10.0,West,23.0,29.9,N/A,,Overcast,270,2014-04-05 03:50:00
11:53 PM,35.1,28.0,76,29.68,10.0,West,21.9,29.9,N/A,,Overcast,270,2014-04-05 03:53:00